Time,TemperatureF,DewpointF,PressureIn,WindDirection,WindDirectionDegrees,WindSpeedMPH,WindSpeedGustMPH,Humidity,HourlyPrecipIn,Conditions,Clouds,dailyrainin,SolarRadiationWatts/m^2,SoftwareType,DateUTC
2013-01-05 00:00:00,34.9,21.6,30.30,WNW,288,0.0,0.0,58,0.00,,---,0.01,0.00,VWS V14.00,2013-01-05 05:00:00,
2013-01-05 00:05:00,34.7,21.5,30.30,WNW,288,0.0,0.0,58,0.00,,---,0.00,0.00,VWS V14.00,2013-01-05 05:05:00,
2013-01-05 00:10:00,34.6,21.4,30.29,WNW,288,0.0,0.0,58,0.00,,---,0.00,0.00,VWS V14.00,2013-01-05 05:10:00,
2013-01-05 00:15:00,34.4,21.6,30.29,WNW,288,0.0,1.0,59,0.00,,---,0.00,0.00,VWS V14.00,2013-01-05 05:15:00,
2013-01-05 00:20:00,34.3,21.9,30.30,WNW,288,0.0,1.0,60,0.00,,---,0.00,0.00,VWS V14.00,2013-01-05 05:20:00,
2013-01-05 00:25:00,34.1,21.7,30.30,WNW,288,0.0,1.0,60,0.00,,---,0.00,0.00,VWS V14.00,2013-01-05 05:25:00,
2013-01-05 00:30:00,33.8,21.4,30.29,WNW,288,0.0,0.0,60,0.00,,---,0.00,0.00,VWS V14.00,2013-01-05 05:30:00,
2013-01-05 00:35:00,33.5,21.5,30.29,WNW,288,0.0,0.0,61,0.00,,---,0.00,0.00,VWS V14.00,2013-01-05 05:35:00,
2013-01-05 00:40:00,33.4,21.4,30.30,WNW,288,0.0,0.0,61,0.00,,---,0.00,0.00,VWS V14.00,2013-01-05 05:40:00,
2013-01-05 00:45:00,33.2,21.2,30.29,WNW,288,0.0,0.0,61,0.00,,---,0.00,0.00,VWS V14.00,2013-01-05 05:45:00,
2013-01-05 00:50:00,33.1,20.7,30.29,WNW,288,0.0,0.0,60,0.00,,---,0.00,0.00,VWS V14.00,2013-01-05 05:50:00,
2013-01-05 00:55:00,32.9,20.9,30.30,WNW,288,0.0,0.0,61,0.00,,---,0.00,0.00,VWS V14.00,2013-01-05 05:55:00,
2013-01-05 01:00:00,32.9,20.9,30.30,WNW,288,0.0,0.0,61,0.00,,---,0.00,0.00,VWS V14.00,2013-01-05 06:00:00,
2013-01-05 01:05:00,32.8,20.9,30.30,WNW,288,0.0,0.0,61,0.00,,---,0.00,0.00,VWS V14.00,2013-01-05 06:05:00,
2013-01-05 01:10:00,32.7,20.8,30.30,WNW,288,0.0,0.0,61,0.00,,---,0.00,0.00,VWS V14.00,2013-01-05 06:10:00,
2013-01-05 01:15:00,32.7,21.1,30.30,WNW,288,0.0,0.0,62,0.00,,---,0.00,0.00,VWS V14.00,2013-01-05 06:15:00,
2013-01-05 01:20:00,32.5,20.9,30.30,WNW,288,0.0,0.0,62,0.00,,---,0.00,0.00,VWS V14.00,2013-01-05 06:20:00,
2013-01-05 01:25:00,32.4,21.2,30.30,WNW,288,0.0,0.0,63,0.00,,---,0.00,0.00,VWS V14.00,2013-01-05 06:25:00,
2013-01-05 01:30:00,32.4,21.2,30.30,WNW,288,0.0,0.0,63,0.00,,---,0.00,0.00,VWS V14.00,2013-01-05 06:30:00,
2013-01-05 01:35:00,32.2,21.4,30.29,WNW,288,0.0,0.0,64,0.00,,---,0.00,0.00,VWS V14.00,2013-01-05 06:35:00,
2013-01-05 01:40:00,32.1,21.3,30.29,WNW,288,0.0,0.0,64,0.00,,---,0.00,0.00,VWS V14.00,2013-01-05 06:40:00,
2013-01-05 01:45:00,31.9,21.1,30.30,WNW,288,0.0,1.0,64,0.00,,---,0.00,0.00,VWS V14.00,2013-01-05 06:45:00,
2013-01-05 01:50:00,31.9,21.1,30.30,WNW,288,0.0,1.0,64,0.00,,---,0.00,0.00,VWS V14.00,2013-01-05 06:50:00,
2013-01-05 01:55:00,31.8,21.0,30.30,WNW,288,0.0,1.0,64,0.00,,---,0.00,0.00,VWS V14.00,2013-01-05 06:55:00,
2013-01-05 02:00:00,31.8,21.4,30.30,WNW,288,0.0,2.0,65,0.00,,---,0.00,0.00,VWS V14.00,2013-01-05 07:00:00,
2013-01-05 02:05:00,31.6,21.2,30.30,WNW,288,0.0,1.0,65,0.00,,---,0.00,0.00,VWS V14.00,2013-01-05 07:05:00,
2013-01-05 02:10:00,31.5,21.1,30.31,WNW,288,0.0,2.0,65,0.00,,---,0.00,0.00,VWS V14.00,2013-01-05 07:10:00,
2013-01-05 02:15:00,31.5,21.8,30.31,WNW,288,2.0,2.0,67,0.00,,---,0.00,0.00,VWS V14.00,2013-01-05 07:15:00,
2013-01-05 02:20:00,31.3,21.6,30.31,WNW,288,1.0,2.0,67,0.00,,---,0.00,0.00,VWS V14.00,2013-01-05 07:20:00,
2013-01-05 02:25:00,31.2,21.5,30.31,WNW,288,1.0,2.0,67,0.00,,---,0.00,0.00,VWS V14.00,2013-01-05 07:25:00,
2013-01-05 02:30:00,31.2,21.5,30.31,WNW,288,0.0,2.0,67,0.00,,---,0.00,0.00,VWS V14.00,2013-01-05 07:30:00,
2013-01-05 02:35:00,31.0,21.7,30.31,WNW,288,0.0,1.0,68,0.00,,---,0.00,0.00,VWS V14.00,2013-01-05 07:35:00,
2013-01-05 02:40:00,30.9,21.6,30.31,WNW,288,0.0,1.0,68,0.00,,---,0.00,0.00,VWS V14.00,2013-01-05 07:40:00,
2013-01-05 02:45:00,30.7,21.4,30.31,WNW,288,1.0,2.0,68,0.00,,---,0.00,0.00,VWS V14.00,2013-01-05 07:45:00,
2013-01-05 02:50:00,30.6,21.3,30.31,WNW,288,0.0,2.0,68,0.00,,---,0.00,0.00,VWS V14.00,2013-01-05 07:50:00,
2013-01-05 02:55:00,30.6,21.6,30.32,WNW,288,0.0,2.0,69,0.00,,---,0.00,0.00,VWS V14.00,2013-01-05 07:55:00,
2013-01-05 03:00:00,30.4,21.5,30.32,WNW,288,0.0,2.0,69,0.00,,---,0.00,0.00,VWS V14.00,2013-01-05 08:00:00,
2013-01-05 03:05:00,30.4,21.5,30.32,WNW,288,0.0,2.0,69,0.00,,---,0.00,0.00,VWS V14.00,2013-01-05 08:05:00,
2013-01-05 03:10:00,30.4,21.8,30.32,WNW,288,0.0,2.0,70,0.00,,---,0.00,0.00,VWS V14.00,2013-01-05 08:10:00,
2013-01-05 03:15:00,30.4,21.5,30.32,WNW,288,1.0,2.0,69,0.00,,---,0.00,0.00,VWS V14.00,2013-01-05 08:15:00,
2013-01-05 03:20:00,30.4,21.8,30.32,WNW,288,0.0,2.0,70,0.00,,---,0.00,0.00,VWS V14.00,2013-01-05 08:20:00,
2013-01-05 03:25:00,30.3,22.0,30.32,WNW,288,1.0,2.0,71,0.00,,---,0.00,0.00,VWS V14.00,2013-01-05 08:25:00,
2013-01-05 03:30:00,30.3,21.7,30.32,WNW,288,1.0,2.0,70,0.00,,---,0.00,0.00,VWS V14.00,2013-01-05 08:30:00,
2013-01-05 03:35:00,30.3,21.7,30.32,WNW,288,1.0,2.0,70,0.00,,---,0.00,0.00,VWS V14.00,2013-01-05 08:35:00,
2013-01-05 03:40:00,30.3,21.7,30.32,WNW,288,0.0,2.0,70,0.00,,---,0.00,0.00,VWS V14.00,2013-01-05 08:40:00,
2013-01-05 03:45:00,30.1,21.9,30.32,WNW,288,0.0,2.0,71,0.00,,---,0.00,0.00,VWS V14.00,2013-01-05 08:45:00,
2013-01-05 03:50:00,30.1,21.5,30.32,WNW,288,0.0,2.0,70,0.00,,---,0.00,0.00,VWS V14.00,2013-01-05 08:50:00,
2013-01-05 03:55:00,30.1,21.5,30.32,WNW,288,0.0,2.0,70,0.00,,---,0.00,0.00,VWS V14.00,2013-01-05 08:55:00,
2013-01-05 04:00:00,30.0,21.8,30.32,WNW,288,0.0,2.0,71,0.00,,---,0.00,0.00,VWS V14.00,2013-01-05 09:00:00,
2013-01-05 04:05:00,30.0,21.1,30.32,WNW,288,0.0,2.0,69,0.00,,---,0.00,0.00,VWS V14.00,2013-01-05 09:05:00,
2013-01-05 04:10:00,30.1,21.5,30.32,WNW,288,0.0,2.0,70,0.00,,---,0.00,0.00,VWS V14.00,2013-01-05 09:10:00,
2013-01-05 04:15:00,30.0,21.4,30.32,WNW,288,1.0,2.0,70,0.00,,---,0.00,0.00,VWS V14.00,2013-01-05 09:15:00,
2013-01-05 04:20:00,30.0,21.4,30.32,WNW,288,1.0,3.0,70,0.00,,---,0.00,0.00,VWS V14.00,2013-01-05 09:20:00,
2013-01-05 04:25:00,30.0,21.4,30.32,WNW,288,0.0,3.0,70,0.00,,---,0.00,0.00,VWS V14.00,2013-01-05 09:25:00,
2013-01-05 04:30:00,30.0,21.1,30.32,WNW,288,0.0,3.0,69,0.00,,---,0.00,0.00,VWS V14.00,2013-01-05 09:30:00,
2013-01-05 04:35:00,30.1,21.2,30.31,WNW,288,1.0,2.0,69,0.00,,---,0.00,0.00,VWS V14.00,2013-01-05 09:35:00,
2013-01-05 04:40:00,30.1,21.2,30.31,WNW,288,0.0,2.0,69,0.00,,---,0.00,0.00,VWS V14.00,2013-01-05 09:40:00,
2013-01-05 04:45:00,30.1,21.5,30.31,WNW,288,0.0,2.0,70,0.00,,---,0.00,0.00,VWS V14.00,2013-01-05 09:45:00,
2013-01-05 04:50:00,30.1,21.2,30.32,WNW,288,0.0,2.0,69,0.00,,---,0.00,0.00,VWS V14.00,2013-01-05 09:50:00,
2013-01-05 04:55:00,30.3,21.4,30.32,WNW,288,0.0,2.0,69,0.00,,---,0.00,0.00,VWS V14.00,2013-01-05 09:55:00,
2013-01-05 05:00:00,30.3,21.4,30.32,WNW,288,0.0,2.0,69,0.00,,---,0.00,0.00,VWS V14.00,2013-01-05 10:00:00,
2013-01-05 05:05:00,30.3,21.0,30.32,WNW,288,0.0,2.0,68,0.00,,---,0.00,0.00,VWS V14.00,2013-01-05 10:05:00,
2013-01-05 05:10:00,30.3,21.7,30.32,WNW,288,0.0,2.0,70,0.00,,---,0.00,0.00,VWS V14.00,2013-01-05 10:10:00,
2013-01-05 05:15:00,30.1,21.5,30.32,WNW,288,0.0,2.0,70,0.00,,---,0.00,0.00,VWS V14.00,2013-01-05 10:15:00,
2013-01-05 05:20:00,30.0,21.8,30.33,WNW,288,0.0,2.0,71,0.00,,---,0.00,0.00,VWS V14.00,2013-01-05 10:20:00,
2013-01-05 05:25:00,29.8,21.6,30.33,WNW,288,0.0,2.0,71,0.00,,---,0.00,0.00,VWS V14.00,2013-01-05 10:25:00,
2013-01-05 05:30:00,29.7,21.8,30.33,WNW,288,1.0,2.0,72,0.00,,---,0.00,0.00,VWS V14.00,2013-01-05 10:30:00,
2013-01-05 05:35:00,29.5,21.3,30.33,WNW,288,0.0,2.0,71,0.00,,---,0.00,0.00,VWS V14.00,2013-01-05 10:35:00,
2013-01-05 05:40:00,29.5,20.9,30.33,WNW,288,0.0,2.0,70,0.00,,---,0.00,0.00,VWS V14.00,2013-01-05 10:40:00,
2013-01-05 05:45:00,29.8,21.2,30.33,WNW,288,0.0,3.0,70,0.00,,---,0.00,0.00,VWS V14.00,2013-01-05 10:45:00,
2013-01-05 05:50:00,30.0,21.1,30.33,WNW,288,0.0,3.0,69,0.00,,---,0.00,0.00,VWS V14.00,2013-01-05 10:50:00,
2013-01-05 05:55:00,30.1,21.2,30.34,WNW,288,1.0,3.0,69,0.00,,---,0.00,0.00,VWS V14.00,2013-01-05 10:55:00,
2013-01-05 06:00:00,30.3,21.4,30.34,WNW,288,0.0,3.0,69,0.00,,---,0.00,0.00,VWS V14.00,2013-01-05 11:00:00,
2013-01-05 06:05:00,30.3,21.4,30.34,WNW,288,0.0,1.0,69,0.00,,---,0.00,0.00,VWS V14.00,2013-01-05 11:05:00,
2013-01-05 06:10:00,30.1,21.5,30.34,WNW,288,0.0,1.0,70,0.00,,---,0.00,0.00,VWS V14.00,2013-01-05 11:10:00,
2013-01-05 06:15:00,30.0,21.4,30.33,WNW,288,0.0,1.0,70,0.00,,---,0.00,0.00,VWS V14.00,2013-01-05 11:15:00,
2013-01-05 06:20:00,29.8,21.2,30.32,WNW,288,0.0,1.0,70,0.00,,---,0.00,0.00,VWS V14.00,2013-01-05 11:20:00,
2013-01-05 06:25:00,29.7,20.8,30.32,WNW,288,0.0,1.0,69,0.00,,---,0.00,0.00,VWS V14.00,2013-01-05 11:25:00,
2013-01-05 06:30:00,29.7,20.8,30.32,WNW,288,0.0,1.0,69,0.00,,---,0.00,0.00,VWS V14.00,2013-01-05 11:30:00,
2013-01-05 06:35:00,29.5,20.9,30.32,WNW,288,0.0,0.0,70,0.00,,---,0.00,0.00,VWS V14.00,2013-01-05 11:35:00,
2013-01-05 06:40:00,29.4,20.8,30.33,WNW,288,0.0,0.0,70,0.00,,---,0.00,0.00,VWS V14.00,2013-01-05 11:40:00,
2013-01-05 06:45:00,29.3,20.7,30.33,WNW,288,0.0,0.0,70,0.00,,---,0.00,0.00,VWS V14.00,2013-01-05 11:45:00,
2013-01-05 06:50:00,29.3,20.7,30.33,WNW,288,0.0,0.0,70,0.00,,---,0.00,0.00,VWS V14.00,2013-01-05 11:50:00,
2013-01-05 06:55:00,29.1,20.5,30.33,WNW,288,0.0,0.0,70,0.00,,---,0.00,0.00,VWS V14.00,2013-01-05 11:55:00,
2013-01-05 07:00:00,29.0,20.5,30.33,WNW,288,0.0,1.0,70,0.00,,---,0.00,0.00,VWS V14.00,2013-01-05 12:00:00,
2013-01-05 07:05:00,29.0,20.5,30.34,WNW,288,0.0,0.0,70,0.00,,---,0.00,0.00,VWS V14.00,2013-01-05 12:05:00,
2013-01-05 07:10:00,29.0,20.5,30.34,WNW,288,0.0,0.0,70,0.00,,---,0.00,0.00,VWS V14.00,2013-01-05 12:10:00,
2013-01-05 07:15:00,29.0,20.5,30.34,WNW,288,0.0,0.0,70,0.00,,---,0.00,0.00,VWS V14.00,2013-01-05 12:15:00,
2013-01-05 07:20:00,29.0,20.5,30.34,WNW,288,0.0,0.0,70,0.00,,---,0.00,0.00,VWS V14.00,2013-01-05 12:20:00,
2013-01-05 07:25:00,28.8,20.6,30.35,WNW,288,0.0,0.0,71,0.00,,---,0.00,0.00,VWS V14.00,2013-01-05 12:25:00,
2013-01-05 07:30:00,28.8,20.9,30.35,WNW,288,0.0,0.0,72,0.00,,---,0.00,5.00,VWS V14.00,2013-01-05 12:30:00,
2013-01-05 07:35:00,28.7,21.1,30.36,WNW,288,0.0,0.0,73,0.00,,---,0.00,7.00,VWS V14.00,2013-01-05 12:35:00,
2013-01-05 07:40:00,28.4,20.9,30.36,WNW,288,0.0,1.0,73,0.00,,---,0.00,9.00,VWS V14.00,2013-01-05 12:40:00,
2013-01-05 07:45:00,28.4,20.9,30.37,WNW,288,0.0,1.0,73,0.00,,---,0.00,11.00,VWS V14.00,2013-01-05 12:45:00,
2013-01-05 07:50:00,28.2,21.0,30.36,WNW,288,0.0,1.0,74,0.00,,---,0.00,12.00,VWS V14.00,2013-01-05 12:50:00,
2013-01-05 07:55:00,28.1,20.9,30.36,WNW,288,0.0,1.0,74,0.00,,---,0.00,14.00,VWS V14.00,2013-01-05 12:55:00,
2013-01-05 08:00:00,28.1,20.9,30.37,WNW,288,0.0,1.0,74,0.00,,---,0.00,16.00,VWS V14.00,2013-01-05 13:00:00,
2013-01-05 08:05:00,28.1,21.2,30.37,WNW,288,0.0,0.0,75,0.00,,---,0.00,18.00,VWS V14.00,2013-01-05 13:05:00,
2013-01-05 08:10:00,28.1,21.2,30.37,WNW,288,0.0,0.0,75,0.00,,---,0.00,21.00,VWS V14.00,2013-01-05 13:10:00,
2013-01-05 08:15:00,28.1,21.2,30.37,WNW,288,0.0,1.0,75,0.00,,---,0.00,21.00,VWS V14.00,2013-01-05 13:15:00,
2013-01-05 08:20:00,28.1,21.5,30.37,WNW,288,0.0,1.0,76,0.00,,---,0.00,28.00,VWS V14.00,2013-01-05 13:20:00,
2013-01-05 08:25:00,28.2,21.6,30.38,WNW,288,0.0,1.0,76,0.00,,---,0.00,30.00,VWS V14.00,2013-01-05 13:25:00,
2013-01-05 08:30:00,28.4,21.8,30.37,WNW,288,0.0,1.0,76,0.00,,---,0.00,37.00,VWS V14.00,2013-01-05 13:30:00,
2013-01-05 08:35:00,29.0,22.7,30.37,WNW,288,0.0,0.0,77,0.00,,---,0.00,49.00,VWS V14.00,2013-01-05 13:35:00,
2013-01-05 08:40:00,30.3,22.7,30.37,WNW,288,0.0,0.0,73,0.00,,---,0.00,62.00,VWS V14.00,2013-01-05 13:40:00,
2013-01-05 08:45:00,31.2,22.2,30.37,WNW,288,0.0,1.0,69,0.00,,---,0.00,67.00,VWS V14.00,2013-01-05 13:45:00,
2013-01-05 08:50:00,31.9,22.5,30.37,WNW,288,0.0,1.0,68,0.00,,---,0.00,72.00,VWS V14.00,2013-01-05 13:50:00,
2013-01-05 08:55:00,32.7,22.6,30.37,WNW,288,0.0,1.0,66,0.00,,---,0.00,69.00,VWS V14.00,2013-01-05 13:55:00,
2013-01-05 09:00:00,33.2,22.7,30.37,WNW,288,0.0,1.0,65,0.00,,---,0.00,67.00,VWS V14.00,2013-01-05 14:00:00,
2013-01-05 09:05:00,33.5,22.6,30.37,WNW,288,0.0,0.0,64,0.00,,---,0.00,81.00,VWS V14.00,2013-01-05 14:05:00,
2013-01-05 09:10:00,34.3,22.6,30.38,WNW,288,0.0,1.0,62,0.00,,---,0.00,142.00,VWS V14.00,2013-01-05 14:10:00,
2013-01-05 09:15:00,34.7,23.4,30.38,WNW,288,0.0,1.0,63,0.00,,---,0.00,248.00,VWS V14.00,2013-01-05 14:15:00,
2013-01-05 09:20:00,35.3,24.4,30.38,WNW,288,0.0,1.0,64,0.00,,---,0.00,185.00,VWS V14.00,2013-01-05 14:20:00,
2013-01-05 09:25:00,35.0,24.1,30.39,WNW,288,0.0,1.0,64,0.00,,---,0.00,200.00,VWS V14.00,2013-01-05 14:25:00,
2013-01-05 09:30:00,35.3,22.8,30.39,WNW,288,0.0,1.0,60,0.00,,---,0.00,325.00,VWS V14.00,2013-01-05 14:30:00,
2013-01-05 09:35:00,36.2,24.1,30.40,WNW,288,0.0,0.0,61,0.00,,---,0.00,257.00,VWS V14.00,2013-01-05 14:35:00,
2013-01-05 09:40:00,36.6,24.8,30.40,WNW,288,0.0,0.0,62,0.00,,---,0.00,297.00,VWS V14.00,2013-01-05 14:40:00,
2013-01-05 09:45:00,37.3,24.7,30.40,WNW,288,0.0,0.0,60,0.00,,---,0.00,260.00,VWS V14.00,2013-01-05 14:45:00,
2013-01-05 09:50:00,37.5,23.2,30.41,WNW,288,0.0,1.0,56,0.00,,---,0.00,285.00,VWS V14.00,2013-01-05 14:50:00,
2013-01-05 09:55:00,37.5,23.7,30.41,SW,234,0.0,1.0,57,0.00,,---,0.00,269.00,VWS V14.00,2013-01-05 14:55:00,
2013-01-05 10:00:00,37.9,25.3,30.40,North,360,1.0,2.0,60,0.00,,---,0.00,385.00,VWS V14.00,2013-01-05 15:00:00,
2013-01-05 10:05:00,38.8,25.3,30.41,NW,325,1.0,3.0,58,0.00,,---,0.00,346.00,VWS V14.00,2013-01-05 15:05:00,
2013-01-05 10:10:00,38.8,23.6,30.40,NNW,331,2.0,3.0,54,0.00,,---,0.00,288.00,VWS V14.00,2013-01-05 15:10:00,
2013-01-05 10:15:00,38.8,24.5,30.40,SSE,165,0.0,3.0,56,0.00,,---,0.00,301.00,VWS V14.00,2013-01-05 15:15:00,
2013-01-05 10:20:00,39.1,23.9,30.40,NNE,32,3.0,3.0,54,0.00,,---,0.00,330.00,VWS V14.00,2013-01-05 15:20:00,
2013-01-05 10:25:00,39.2,24.0,30.40,North,350,0.0,4.0,54,0.00,,---,0.00,357.00,VWS V14.00,2013-01-05 15:25:00,
2013-01-05 10:30:00,39.6,23.9,30.40,NNW,348,0.0,4.0,53,0.00,,---,0.00,388.00,VWS V14.00,2013-01-05 15:30:00,
2013-01-05 10:35:00,39.6,23.4,30.40,NNW,346,0.0,3.0,52,0.00,,---,0.00,367.00,VWS V14.00,2013-01-05 15:35:00,
2013-01-05 10:40:00,39.9,23.3,30.40,North,9,0.0,4.0,51,0.00,,---,0.00,475.00,VWS V14.00,2013-01-05 15:40:00,
2013-01-05 10:45:00,40.2,22.6,30.40,North,355,2.0,5.0,49,0.00,,---,0.00,508.00,VWS V14.00,2013-01-05 15:45:00,
2013-01-05 10:50:00,40.8,23.6,30.40,NNW,348,0.0,5.0,50,0.00,,---,0.00,468.00,VWS V14.00,2013-01-05 15:50:00,
2013-01-05 10:55:00,41.1,23.9,30.40,NNW,340,3.0,6.0,50,0.00,,---,0.00,431.00,VWS V14.00,2013-01-05 15:55:00,
2013-01-05 11:00:00,41.2,23.0,30.40,NNW,332,0.0,6.0,48,0.00,,---,0.00,253.00,VWS V14.00,2013-01-05 16:00:00,
2013-01-05 11:05:00,41.9,24.6,30.39,North,5,0.0,6.0,50,0.00,,---,0.00,193.00,VWS V14.00,2013-01-05 16:05:00,
2013-01-05 11:10:00,41.8,23.6,30.39,North,11,0.0,6.0,48,0.00,,---,0.00,258.00,VWS V14.00,2013-01-05 16:10:00,
2013-01-05 11:15:00,42.2,23.9,30.40,North,10,3.0,6.0,48,0.00,,---,0.00,327.00,VWS V14.00,2013-01-05 16:15:00,
2013-01-05 11:20:00,41.5,23.3,30.40,West,259,0.0,6.0,48,0.00,,---,0.00,258.00,VWS V14.00,2013-01-05 16:20:00,
2013-01-05 11:25:00,42.9,25.1,30.39,WNW,303,0.0,6.0,49,0.00,,---,0.00,383.00,VWS V14.00,2013-01-05 16:25:00,
2013-01-05 11:30:00,42.9,25.6,30.39,NNE,18,0.0,6.0,50,0.00,,---,0.00,517.00,VWS V14.00,2013-01-05 16:30:00,
2013-01-05 11:35:00,43.8,24.9,30.39,NNW,333,2.0,4.0,47,0.00,,---,0.00,471.00,VWS V14.00,2013-01-05 16:35:00,
2013-01-05 11:40:00,43.5,23.6,30.39,NW,311,2.0,4.0,45,0.00,,---,0.00,524.00,VWS V14.00,2013-01-05 16:40:00,
2013-01-05 11:45:00,43.8,24.4,30.38,WSW,254,3.0,4.0,46,0.00,,---,0.00,431.00,VWS V14.00,2013-01-05 16:45:00,
2013-01-05 11:50:00,44.2,25.3,30.37,NNE,18,1.0,5.0,47,0.00,,---,0.00,483.00,VWS V14.00,2013-01-05 16:50:00,
2013-01-05 11:55:00,43.8,22.8,30.37,NW,318,0.0,5.0,43,0.00,,---,0.00,487.00,VWS V14.00,2013-01-05 16:55:00,
2013-01-05 12:00:00,44.2,24.8,30.37,WNW,284,1.0,5.0,46,0.00,,---,0.00,496.00,VWS V14.00,2013-01-05 17:00:00,
2013-01-05 12:05:00,45.1,24.0,30.37,NW,320,2.0,3.0,43,0.00,,---,0.00,475.00,VWS V14.00,2013-01-05 17:05:00,
2013-01-05 12:10:00,45.4,24.2,30.36,SW,230,1.0,3.0,43,0.00,,---,0.00,478.00,VWS V14.00,2013-01-05 17:10:00,
2013-01-05 12:15:00,44.8,23.1,30.36,SSE,159,0.0,3.0,42,0.00,,---,0.00,471.00,VWS V14.00,2013-01-05 17:15:00,
2013-01-05 12:20:00,45.8,25.7,30.36,NW,321,1.0,4.0,45,0.00,,---,0.00,506.00,VWS V14.00,2013-01-05 17:20:00,
2013-01-05 12:25:00,46.0,23.6,30.36,NNW,335,2.0,4.0,41,0.00,,---,0.00,522.00,VWS V14.00,2013-01-05 17:25:00,
2013-01-05 12:30:00,45.5,24.3,30.35,NNE,12,1.0,4.0,43,0.00,,---,0.00,403.00,VWS V14.00,2013-01-05 17:30:00,
2013-01-05 12:35:00,44.8,23.1,30.34,North,5,2.0,3.0,42,0.00,,---,0.00,427.00,VWS V14.00,2013-01-05 17:35:00,
2013-01-05 12:40:00,45.5,23.8,30.34,North,355,1.0,3.0,42,0.00,,---,0.00,429.00,VWS V14.00,2013-01-05 17:40:00,
2013-01-05 12:45:00,45.7,23.9,30.34,West,263,0.0,4.0,42,0.00,,---,0.00,559.00,VWS V14.00,2013-01-05 17:45:00,
2013-01-05 12:50:00,46.7,26.0,30.34,NNW,331,1.0,4.0,44,0.00,,---,0.00,482.00,VWS V14.00,2013-01-05 17:50:00,
2013-01-05 12:55:00,46.0,23.6,30.33,NNE,23,4.0,4.0,41,0.00,,---,0.00,431.00,VWS V14.00,2013-01-05 17:55:00,
2013-01-05 13:00:00,47.1,26.3,30.33,NNW,340,0.0,4.0,44,0.00,,---,0.00,471.00,VWS V14.00,2013-01-05 18:00:00,
2013-01-05 13:05:00,47.6,25.1,30.32,North,355,0.0,1.0,41,0.00,,---,0.00,404.00,VWS V14.00,2013-01-05 18:05:00,
2013-01-05 13:10:00,47.0,24.5,30.32,NNW,348,0.0,2.0,41,0.00,,---,0.00,420.00,VWS V14.00,2013-01-05 18:10:00,
2013-01-05 13:15:00,46.1,23.1,30.32,WSW,249,0.0,2.0,40,0.00,,---,0.00,334.00,VWS V14.00,2013-01-05 18:15:00,
2013-01-05 13:20:00,46.4,22.8,30.31,SW,233,0.0,2.0,39,0.00,,---,0.00,403.00,VWS V14.00,2013-01-05 18:20:00,
2013-01-05 13:25:00,47.4,23.1,30.31,SSE,148,0.0,3.0,38,0.00,,---,0.00,341.00,VWS V14.00,2013-01-05 18:25:00,
2013-01-05 13:30:00,48.0,23.6,30.31,ESE,111,0.0,3.0,38,0.00,,---,0.00,584.00,VWS V14.00,2013-01-05 18:30:00,
2013-01-05 13:35:00,47.9,25.4,30.31,NNE,18,4.0,4.0,41,0.00,,---,0.00,599.00,VWS V14.00,2013-01-05 18:35:00,
2013-01-05 13:40:00,47.7,24.6,30.31,NNW,327,2.0,5.0,40,0.00,,---,0.00,227.00,VWS V14.00,2013-01-05 18:40:00,
2013-01-05 13:45:00,47.4,23.1,30.31,North,350,2.0,5.0,38,0.00,,---,0.00,394.00,VWS V14.00,2013-01-05 18:45:00,
2013-01-05 13:50:00,48.2,23.2,30.30,North,360,2.0,5.0,37,0.00,,---,0.00,526.00,VWS V14.00,2013-01-05 18:50:00,
2013-01-05 13:55:00,49.1,23.3,30.30,NE,38,0.0,5.0,36,0.00,,---,0.00,564.00,VWS V14.00,2013-01-05 18:55:00,
2013-01-05 14:00:00,48.3,23.3,30.29,NNW,339,0.0,5.0,37,0.00,,---,0.00,425.00,VWS V14.00,2013-01-05 19:00:00,
2013-01-05 14:05:00,49.4,25.5,30.29,ENE,68,0.0,3.0,39,0.00,,---,0.00,452.00,VWS V14.00,2013-01-05 19:05:00,
2013-01-05 14:10:00,48.9,24.4,30.30,East,101,0.0,3.0,38,0.00,,---,0.00,213.00,VWS V14.00,2013-01-05 19:10:00,
2013-01-05 14:15:00,49.5,24.3,30.30,East,101,0.0,3.0,37,0.00,,---,0.00,265.00,VWS V14.00,2013-01-05 19:15:00,
2013-01-05 14:20:00,49.1,24.6,30.29,East,101,0.0,3.0,38,0.00,,---,0.00,399.00,VWS V14.00,2013-01-05 19:20:00,
2013-01-05 14:25:00,48.9,23.1,30.29,West,279,0.0,4.0,36,0.00,,---,0.00,578.00,VWS V14.00,2013-01-05 19:25:00,
2013-01-05 14:30:00,49.5,25.6,30.29,South,178,2.0,4.0,39,0.00,,---,0.00,387.00,VWS V14.00,2013-01-05 19:30:00,
2013-01-05 14:35:00,49.5,23.0,30.29,North,5,0.0,3.0,35,0.00,,---,0.00,538.00,VWS V14.00,2013-01-05 19:35:00,
2013-01-05 14:40:00,49.8,23.3,30.29,North,360,0.0,5.0,35,0.00,,---,0.00,478.00,VWS V14.00,2013-01-05 19:40:00,
2013-01-05 14:45:00,49.6,22.4,30.29,South,175,5.0,6.0,34,0.00,,---,0.00,385.00,VWS V14.00,2013-01-05 19:45:00,
2013-01-05 14:50:00,49.1,22.6,30.30,SSW,204,0.0,6.0,35,0.00,,---,0.00,91.00,VWS V14.00,2013-01-05 19:50:00,
2013-01-05 14:55:00,49.1,23.3,30.30,SSE,168,0.0,6.0,36,0.00,,---,0.00,172.00,VWS V14.00,2013-01-05 19:55:00,
2013-01-05 15:00:00,48.8,23.0,30.30,South,189,0.0,6.0,36,0.00,,---,0.00,234.00,VWS V14.00,2013-01-05 20:00:00,
2013-01-05 15:05:00,48.8,23.0,30.30,South,188,0.0,1.0,36,0.00,,---,0.00,178.00,VWS V14.00,2013-01-05 20:05:00,
2013-01-05 15:10:00,48.9,22.5,30.30,South,189,0.0,3.0,35,0.00,,---,0.00,137.00,VWS V14.00,2013-01-05 20:10:00,
2013-01-05 15:15:00,49.1,22.0,30.30,South,189,0.0,3.0,34,0.00,,---,0.00,153.00,VWS V14.00,2013-01-05 20:15:00,
2013-01-05 15:20:00,48.9,21.8,30.30,South,189,0.0,3.0,34,0.00,,---,0.00,202.00,VWS V14.00,2013-01-05 20:20:00,
2013-01-05 15:25:00,49.1,22.6,30.30,South,189,0.0,4.0,35,0.00,,---,0.00,179.00,VWS V14.00,2013-01-05 20:25:00,
2013-01-05 15:30:00,49.2,22.7,30.30,South,182,0.0,4.0,35,0.00,,---,0.00,244.00,VWS V14.00,2013-01-05 20:30:00,
2013-01-05 15:35:00,49.4,23.6,30.30,South,191,0.0,3.0,36,0.00,,---,0.00,174.00,VWS V14.00,2013-01-05 20:35:00,
2013-01-05 15:40:00,49.6,24.4,30.30,SSW,194,2.0,5.0,37,0.00,,---,0.00,102.00,VWS V14.00,2013-01-05 20:40:00,
2013-01-05 15:45:00,49.6,23.8,30.31,SSW,194,0.0,5.0,36,0.00,,---,0.00,121.00,VWS V14.00,2013-01-05 20:45:00,
2013-01-05 15:50:00,49.8,25.2,30.30,SSW,194,0.0,5.0,38,0.00,,---,0.00,214.00,VWS V14.00,2013-01-05 20:50:00,
2013-01-05 15:55:00,49.8,24.6,30.31,SSW,195,0.0,5.0,37,0.00,,---,0.00,218.00,VWS V14.00,2013-01-05 20:55:00,
2013-01-05 16:00:00,49.6,24.4,30.30,SSW,195,0.0,5.0,37,0.00,,---,0.00,223.00,VWS V14.00,2013-01-05 21:00:00,
2013-01-05 16:05:00,49.4,23.6,30.30,SSW,205,2.0,5.0,36,0.00,,---,0.00,165.00,VWS V14.00,2013-01-05 21:05:00,
2013-01-05 16:10:00,49.2,24.7,30.31,SSW,208,3.0,5.0,38,0.00,,---,0.00,77.00,VWS V14.00,2013-01-05 21:10:00,
2013-01-05 16:14:00,49.1,24.0,30.31,SSW,208,0.0,5.0,37,0.00,,---,0.00,40.00,VWS V14.00,2013-01-05 21:14:00,
2013-01-05 16:19:00,49.1,24.6,30.31,SSW,208,0.0,5.0,38,0.00,,---,0.00,46.00,VWS V14.00,2013-01-05 21:19:00,
2013-01-05 16:24:00,48.9,23.1,30.31,SSW,208,0.0,5.0,36,0.00,,---,0.00,37.00,VWS V14.00,2013-01-05 21:24:00,
2013-01-05 16:30:00,48.6,26.0,30.32,SSW,208,0.0,5.0,41,0.00,,---,0.00,42.00,VWS V14.00,2013-01-05 21:30:00,
2013-01-05 16:35:00,48.5,25.9,30.31,SSW,208,0.0,1.0,41,0.00,,---,0.00,33.00,VWS V14.00,2013-01-05 21:35:00,
2013-01-05 16:39:00,48.5,26.5,30.31,SSW,208,0.0,1.0,42,0.00,,---,0.00,33.00,VWS V14.00,2013-01-05 21:39:00,
2013-01-05 16:44:00,48.5,27.0,30.31,SSW,208,0.0,1.0,43,0.00,,---,0.00,35.00,VWS V14.00,2013-01-05 21:44:00,
2013-01-05 16:49:00,48.5,27.0,30.30,SSW,208,0.0,1.0,43,0.00,,---,0.00,26.00,VWS V14.00,2013-01-05 21:49:00,
2013-01-05 16:54:00,48.3,27.4,30.30,SSW,208,0.0,1.0,44,0.00,,---,0.00,35.00,VWS V14.00,2013-01-05 21:54:00,
2013-01-05 16:59:00,48.2,27.3,30.30,SSW,208,0.0,1.0,44,0.00,,---,0.00,21.00,VWS V14.00,2013-01-05 21:59:00,
2013-01-05 17:04:00,47.9,26.5,30.30,SSW,208,0.0,0.0,43,0.00,,---,0.00,12.00,VWS V14.00,2013-01-05 22:04:00,
2013-01-05 17:09:00,47.7,26.9,30.31,SSW,208,0.0,0.0,44,0.00,,---,0.00,9.00,VWS V14.00,2013-01-05 22:09:00,
2013-01-05 17:14:00,47.4,27.1,30.31,SSW,208,0.0,0.0,45,0.00,,---,0.00,0.00,VWS V14.00,2013-01-05 22:14:00,
2013-01-05 17:19:00,47.1,26.3,30.31,SSW,208,0.0,0.0,44,0.00,,---,0.00,0.00,VWS V14.00,2013-01-05 22:19:00,
2013-01-05 17:24:00,46.8,26.0,30.30,SSW,208,0.0,0.0,44,0.00,,---,0.00,0.00,VWS V14.00,2013-01-05 22:24:00,
2013-01-05 17:29:00,46.4,25.7,30.30,SSW,208,0.0,0.0,44,0.00,,---,0.00,0.00,VWS V14.00,2013-01-05 22:29:00,
2013-01-05 17:35:00,46.1,25.4,30.31,SSW,208,0.0,0.0,44,0.00,,---,0.00,0.00,VWS V14.00,2013-01-05 22:35:00,
2013-01-05 17:39:00,45.8,25.7,30.30,SSW,208,0.0,0.0,45,0.00,,---,0.00,0.00,VWS V14.00,2013-01-05 22:39:00,
2013-01-05 17:44:00,45.5,25.9,30.30,SSW,208,0.0,0.0,46,0.00,,---,0.00,0.00,VWS V14.00,2013-01-05 22:44:00,
2013-01-05 17:49:00,45.1,25.6,30.30,SSW,208,0.0,0.0,46,0.00,,---,0.00,0.00,VWS V14.00,2013-01-05 22:49:00,
2013-01-05 17:54:00,44.9,24.9,30.31,SSW,208,1.0,1.0,45,0.00,,---,0.00,0.00,VWS V14.00,2013-01-05 22:54:00,
2013-01-05 17:59:00,44.6,25.1,30.30,SSW,208,0.0,1.0,46,0.00,,---,0.00,0.00,VWS V14.00,2013-01-05 22:59:00,
2013-01-05 18:04:00,44.5,25.0,30.30,SSW,208,0.0,0.0,46,0.00,,---,0.00,0.00,VWS V14.00,2013-01-05 23:04:00,
2013-01-05 18:09:00,44.3,25.4,30.30,SSW,208,0.0,0.0,47,0.00,,---,0.00,0.00,VWS V14.00,2013-01-05 23:09:00,
2013-01-05 18:14:00,44.2,26.3,30.30,SSW,208,0.0,1.0,49,0.00,,---,0.00,0.00,VWS V14.00,2013-01-05 23:14:00,
2013-01-05 18:19:00,44.1,25.7,30.30,South,170,0.0,3.0,48,0.00,,---,0.00,0.00,VWS V14.00,2013-01-05 23:19:00,
2013-01-05 18:24:00,43.9,25.5,30.30,SE,140,1.0,3.0,48,0.00,,---,0.00,0.00,VWS V14.00,2013-01-05 23:24:00,
2013-01-05 18:29:00,43.8,25.9,30.30,SE,140,0.0,3.0,49,0.00,,---,0.00,0.00,VWS V14.00,2013-01-05 23:29:00,
2013-01-05 18:34:00,43.8,25.4,30.29,SE,140,0.0,0.0,48,0.00,,---,0.00,0.00,VWS V14.00,2013-01-05 23:34:00,
2013-01-05 18:39:00,43.6,25.7,30.29,SE,134,1.0,3.0,49,0.00,,---,0.00,0.00,VWS V14.00,2013-01-05 23:39:00,
2013-01-05 18:44:00,43.5,25.6,30.29,SE,134,0.0,3.0,49,0.00,,---,0.00,0.00,VWS V14.00,2013-01-05 23:44:00,
2013-01-05 18:49:00,43.3,25.9,30.29,SE,134,0.0,3.0,50,0.00,,---,0.00,0.00,VWS V14.00,2013-01-05 23:49:00,
2013-01-05 18:54:00,43.2,25.8,30.29,SE,134,0.0,3.0,50,0.00,,---,0.00,0.00,VWS V14.00,2013-01-05 23:54:00,
2013-01-05 18:59:00,43.1,25.7,30.29,SE,134,0.0,3.0,50,0.00,,---,0.00,0.00,VWS V14.00,2013-01-05 23:59:00,
2013-01-05 19:04:00,43.1,25.7,30.29,SE,134,0.0,1.0,50,0.00,,---,0.00,0.00,VWS V14.00,2013-01-06 00:04:00,
2013-01-05 19:09:00,42.9,25.6,30.29,SE,134,0.0,1.0,50,0.00,,---,0.00,0.00,VWS V14.00,2013-01-06 00:09:00,
2013-01-05 19:14:00,42.8,25.9,30.29,SE,134,0.0,1.0,51,0.00,,---,0.00,0.00,VWS V14.00,2013-01-06 00:14:00,
2013-01-05 19:19:00,42.6,26.2,30.29,SE,134,0.0,1.0,52,0.00,,---,0.00,0.00,VWS V14.00,2013-01-06 00:19:00,
2013-01-05 19:24:00,42.5,25.7,30.29,SE,134,0.0,1.0,51,0.00,,---,0.00,0.00,VWS V14.00,2013-01-06 00:24:00,
2013-01-05 19:29:00,42.3,25.9,30.30,SE,134,1.0,1.0,52,0.00,,---,0.00,0.00,VWS V14.00,2013-01-06 00:29:00,
2013-01-05 19:34:00,42.3,25.9,30.30,SSW,212,0.0,4.0,52,0.00,,---,0.00,0.00,VWS V14.00,2013-01-06 00:34:00,
2013-01-05 19:39:00,42.2,25.9,30.30,SSW,212,0.0,4.0,52,0.00,,---,0.00,0.00,VWS V14.00,2013-01-06 00:39:00,
2013-01-05 19:44:00,42.2,26.3,30.30,SSW,212,0.0,4.0,53,0.00,,---,0.00,0.00,VWS V14.00,2013-01-06 00:44:00,
2013-01-05 19:49:00,42.1,26.2,30.30,SSW,212,0.0,4.0,53,0.00,,---,0.00,0.00,VWS V14.00,2013-01-06 00:49:00,
2013-01-05 19:54:00,41.9,25.6,30.30,SSW,212,0.0,4.0,52,0.00,,---,0.00,0.00,VWS V14.00,2013-01-06 00:54:00,
2013-01-05 19:59:00,41.8,25.9,30.30,SSW,212,0.0,4.0,53,0.00,,---,0.00,0.00,VWS V14.00,2013-01-06 00:59:00,
2013-01-05 20:04:00,41.5,26.1,30.30,SSW,212,0.0,1.0,54,0.00,,---,0.00,0.00,VWS V14.00,2013-01-06 01:04:00,
2013-01-05 20:09:00,41.3,25.9,30.30,SSW,202,0.0,1.0,54,0.00,,---,0.00,0.00,VWS V14.00,2013-01-06 01:09:00,
2013-01-05 20:14:00,41.2,25.8,30.29,SSW,202,0.0,1.0,54,0.00,,---,0.00,0.00,VWS V14.00,2013-01-06 01:14:00,
2013-01-05 20:19:00,41.1,25.7,30.29,SSW,202,0.0,1.0,54,0.00,,---,0.00,0.00,VWS V14.00,2013-01-06 01:19:00,
2013-01-05 20:24:00,40.9,26.4,30.29,SSW,202,0.0,1.0,56,0.00,,---,0.00,0.00,VWS V14.00,2013-01-06 01:24:00,
2013-01-05 20:29:00,40.6,27.4,30.30,SSW,202,0.0,1.0,59,0.00,,---,0.00,0.00,VWS V14.00,2013-01-06 01:29:00,
2013-01-05 20:34:00,40.2,27.4,30.29,SSW,202,0.0,0.0,60,0.00,,---,0.00,0.00,VWS V14.00,2013-01-06 01:34:00,
2013-01-05 20:39:00,39.9,27.6,30.30,SSW,202,0.0,0.0,61,0.00,,---,0.00,0.00,VWS V14.00,2013-01-06 01:39:00,
2013-01-05 20:44:00,39.5,27.2,30.29,SSW,202,0.0,2.0,61,0.00,,---,0.00,0.00,VWS V14.00,2013-01-06 01:44:00,
2013-01-05 20:49:00,39.3,26.6,30.29,SSW,202,0.0,3.0,60,0.00,,---,0.00,0.00,VWS V14.00,2013-01-06 01:49:00,
2013-01-05 20:54:00,39.5,26.4,30.30,SSW,202,0.0,3.0,59,0.00,,---,0.00,0.00,VWS V14.00,2013-01-06 01:54:00,
2013-01-05 20:59:00,39.6,26.5,30.29,SSE,152,0.0,3.0,59,0.00,,---,0.00,0.00,VWS V14.00,2013-01-06 01:59:00,
2013-01-05 21:04:00,40.1,26.5,30.29,SSW,194,1.0,3.0,58,0.00,,---,0.00,0.00,VWS V14.00,2013-01-06 02:04:00,
2013-01-05 21:09:00,40.3,26.7,30.29,SSW,200,1.0,3.0,58,0.00,,---,0.00,0.00,VWS V14.00,2013-01-06 02:09:00,
2013-01-05 21:14:00,40.6,27.4,30.30,South,186,0.0,3.0,59,0.00,,---,0.00,0.00,VWS V14.00,2013-01-06 02:14:00,
2013-01-05 21:19:00,40.6,27.4,30.29,South,182,0.0,4.0,59,0.00,,---,0.00,0.00,VWS V14.00,2013-01-06 02:19:00,
2013-01-05 21:24:00,40.8,26.8,30.29,South,177,1.0,5.0,57,0.00,,---,0.00,0.00,VWS V14.00,2013-01-06 02:24:00,
2013-01-05 21:29:00,41.2,26.3,30.29,South,179,0.0,5.0,55,0.00,,---,0.00,0.00,VWS V14.00,2013-01-06 02:29:00,
2013-01-05 21:34:00,41.6,26.2,30.29,South,191,4.0,6.0,54,0.00,,---,0.00,0.00,VWS V14.00,2013-01-06 02:34:00,
2013-01-05 21:39:00,42.1,26.2,30.29,South,182,0.0,6.0,53,0.00,,---,0.00,0.00,VWS V14.00,2013-01-06 02:39:00,
2013-01-05 21:44:00,42.2,26.8,30.30,SW,227,0.0,6.0,54,0.00,,---,0.00,0.00,VWS V14.00,2013-01-06 02:44:00,
2013-01-05 21:49:00,42.2,27.2,30.30,South,179,0.0,6.0,55,0.00,,---,0.00,0.00,VWS V14.00,2013-01-06 02:49:00,
2013-01-05 21:54:00,42.1,27.1,30.30,South,187,3.0,6.0,55,0.00,,---,0.00,0.00,VWS V14.00,2013-01-06 02:54:00,
2013-01-05 21:59:00,41.9,27.4,30.29,South,187,1.0,6.0,56,0.00,,---,0.00,0.00,VWS V14.00,2013-01-06 02:59:00,
2013-01-05 22:04:00,41.8,27.3,30.29,South,186,0.0,3.0,56,0.00,,---,0.00,0.00,VWS V14.00,2013-01-06 03:04:00,
2013-01-05 22:09:00,41.8,27.3,30.29,SSW,198,0.0,3.0,56,0.00,,---,0.00,0.00,VWS V14.00,2013-01-06 03:09:00,
2013-01-05 22:14:00,41.6,27.5,30.30,SSW,207,0.0,3.0,57,0.00,,---,0.00,0.00,VWS V14.00,2013-01-06 03:14:00,
2013-01-05 22:19:00,41.5,28.3,30.29,SSW,207,1.0,3.0,59,0.00,,---,0.00,0.00,VWS V14.00,2013-01-06 03:19:00,
2013-01-05 22:24:00,41.3,28.1,30.30,SSW,207,0.0,3.0,59,0.00,,---,0.00,0.00,VWS V14.00,2013-01-06 03:24:00,
2013-01-05 22:29:00,41.2,27.6,30.29,SSW,207,0.0,3.0,58,0.00,,---,0.00,0.00,VWS V14.00,2013-01-06 03:29:00,
2013-01-05 22:34:00,41.2,28.0,30.29,SSW,207,0.0,1.0,59,0.00,,---,0.00,0.00,VWS V14.00,2013-01-06 03:34:00,
2013-01-05 22:39:00,41.1,27.9,30.29,SSW,207,0.0,1.0,59,0.00,,---,0.00,0.00,VWS V14.00,2013-01-06 03:39:00,
2013-01-05 22:44:00,40.9,27.7,30.29,South,175,0.0,2.0,59,0.00,,---,0.00,0.00,VWS V14.00,2013-01-06 03:44:00,
2013-01-05 22:49:00,40.8,27.6,30.29,South,175,0.0,2.0,59,0.00,,---,0.00,0.00,VWS V14.00,2013-01-06 03:49:00,
2013-01-05 22:54:00,40.6,27.4,30.28,South,175,1.0,3.0,59,0.00,,---,0.00,0.00,VWS V14.00,2013-01-06 03:54:00,
2013-01-05 22:59:00,40.6,27.0,30.28,South,175,0.0,3.0,58,0.00,,---,0.00,0.00,VWS V14.00,2013-01-06 03:59:00,
2013-01-05 23:04:00,40.8,27.6,30.29,South,175,0.0,0.0,59,0.00,,---,0.00,0.00,VWS V14.00,2013-01-06 04:04:00,
2013-01-05 23:09:00,40.6,27.8,30.29,South,175,0.0,0.0,60,0.00,,---,0.00,0.00,VWS V14.00,2013-01-06 04:09:00,
2013-01-05 23:14:00,40.6,27.8,30.29,South,175,0.0,1.0,60,0.00,,---,0.00,0.00,VWS V14.00,2013-01-06 04:14:00,
2013-01-05 23:19:00,40.6,27.4,30.29,South,175,1.0,3.0,59,0.00,,---,0.00,0.00,VWS V14.00,2013-01-06 04:19:00,
2013-01-05 23:24:00,40.8,27.2,30.28,SW,217,0.0,3.0,58,0.00,,---,0.00,0.00,VWS V14.00,2013-01-06 04:24:00,
2013-01-05 23:29:00,40.8,27.6,30.28,SW,232,0.0,3.0,59,0.00,,---,0.00,0.00,VWS V14.00,2013-01-06 04:29:00,
2013-01-05 23:34:00,40.9,27.3,30.28,South,185,0.0,4.0,58,0.00,,---,0.00,0.00,VWS V14.00,2013-01-06 04:34:00,
2013-01-05 23:39:00,41.1,27.5,30.28,SW,226,1.0,4.0,58,0.00,,---,0.00,0.00,VWS V14.00,2013-01-06 04:39:00,
2013-01-05 23:44:00,41.2,27.6,30.28,SW,226,0.0,4.0,58,0.00,,---,0.00,0.00,VWS V14.00,2013-01-06 04:44:00,
2013-01-05 23:49:00,41.2,27.6,30.28,SSW,192,1.0,4.0,58,0.00,,---,0.00,0.00,VWS V14.00,2013-01-06 04:49:00,
2013-01-05 23:54:00,41.3,27.2,30.28,SW,230,0.0,4.0,57,0.00,,---,0.00,0.00,VWS V14.00,2013-01-06 04:54:00,
2013-01-05 23:59:00,41.3,27.2,30.28,SSW,211,0.0,4.0,57,0.00,,---,0.00,0.00,VWS V14.00,2013-01-06 04:59:00,